Change the Weather History Date:

Thursday, April 11, 2013

  Actual Average Record
Temperature  
Mean Temperature 38 °F -  
Max Temperature 53 °F 55 °F 77 °F (1998)
Min Temperature 22 °F 30 °F 10 °F (1997)
Degree Days  
Heating Degree Days 27    
Month to date heating degree days 268  
Moisture  
Dew Point 25 °F    
Average Humidity 63    
Maximum Humidity 89    
Minimum Humidity 36    
Precipitation  
Precipitation 0.00 in - - ()
Month to date precipitation 0.08  
Year to date precipitation 2.24  
Sea Level Pressure  
Sea Level Pressure 29.85 in    
Wind  
Wind Speed 7 mph (ESE)    
Max Wind Speed 23 mph    
Max Gust Speed 31 mph    
Visibility 10 miles    
Events      
Averages and records for this station are not official NWS values.
T = Trace of Precipitation, MM = Missing Value Source: NWS Daily Summary

Daily Weather History Graph

Daily Weather History Graph

Search for Another Location

Airport or City:

Trip Planner

Search our weather history database for the weather conditions in past years. The results will help you decide how hot, cold, wet, or windy it might be!

Date:

Astronomy

Apr. 11, 2013 Rise Set
Actual Time 6:27 AM MDT 7:33 PM MDT
Civil Twilight 6:00 AM MDT 8:01 PM MDT
Nautical Twilight 5:27 AM MDT 8:34 PM MDT
Astronomical Twilight 4:52 AM MDT 9:08 PM MDT
Moon 7:01 AM MDT (4/11) 9:10 PM MDT (4/11)
Length of Visible Light 14h 01m
Length of Day
13h 06m
New Moon, 2% of the Moon is Illuminated
Apr 11
New Moon
Apr 18
First Quarter
Apr 25
Full
May 2
Last Quarter
May 9
New

Hourly Weather History & Observations

Time (MDT) Temp. Windchill Dew Point Humidity Pressure Visibility Wind Dir Wind Speed Gust Speed Precip Events Conditions
12:53 AM 21.9 °F 14.5 °F 15.1 °F 75% 29.95 in 10.0 mi SSE 5.8 mph - N/A   Partly Cloudy
1:53 AM 23.0 °F 17.0 °F 15.1 °F 72% 29.91 in 10.0 mi South 4.6 mph - N/A   Partly Cloudy
2:53 AM 25.0 °F 18.1 °F 17.1 °F 72% 29.86 in 10.0 mi South 5.8 mph - N/A   Mostly Cloudy
3:53 AM 23.0 °F 14.7 °F 17.1 °F 78% 29.86 in 10.0 mi NNW 6.9 mph - N/A   Mostly Cloudy
4:53 AM 23.0 °F - 18.0 °F 81% 29.85 in 8.0 mi Calm Calm - N/A   Mostly Cloudy
5:53 AM 23.0 °F 18.4 °F 18.0 °F 81% 29.83 in 10.0 mi South 3.5 mph - N/A   Scattered Clouds
6:53 AM 28.9 °F 25.2 °F 18.0 °F 64% 29.81 in 10.0 mi WSW 3.5 mph - N/A   Scattered Clouds
7:53 AM 37.9 °F 30.9 °F 21.0 °F 51% 29.81 in 10.0 mi West 10.4 mph - N/A   Scattered Clouds
8:53 AM 42.1 °F 36.1 °F 21.9 °F 45% 29.79 in 10.0 mi NW 10.4 mph - N/A   Mostly Cloudy
9:53 AM 44.1 °F 39.0 °F 23.0 °F 43% 29.79 in 10.0 mi NNW 9.2 mph - N/A   Mostly Cloudy
11:53 AM 50.0 °F - 25.0 °F 38% 29.80 in 10.0 mi North 15.0 mph - N/A   Mostly Cloudy
12:53 PM 50.0 °F - 26.1 °F 39% 29.80 in 10.0 mi East 8.1 mph 17.3 mph N/A   Mostly Cloudy
1:53 PM 51.1 °F - 26.1 °F 38% 29.79 in 10.0 mi North 8.1 mph 19.6 mph N/A   Mostly Cloudy
2:53 PM 46.9 °F - 33.1 °F 59% 29.82 in 10.0 mi NE 16.1 mph 27.6 mph N/A   Mostly Cloudy
3:53 PM 45.0 °F 37.6 °F 32.0 °F 60% 29.84 in 10.0 mi NE 17.3 mph 23.0 mph N/A   Mostly Cloudy
4:53 PM 48.0 °F - 33.1 °F 56% 29.83 in 10.0 mi NNE 8.1 mph - N/A   Mostly Cloudy
5:53 PM 44.1 °F 39.0 °F 32.0 °F 63% 29.86 in 10.0 mi ENE 9.2 mph - N/A   Mostly Cloudy
6:53 PM 43.0 °F 38.8 °F 32.0 °F 65% 29.86 in 10.0 mi East 6.9 mph - N/A   Mostly Cloudy
7:53 PM 39.9 °F 34.5 °F 32.0 °F 73% 29.85 in 10.0 mi ESE 8.1 mph - N/A   Scattered Clouds
8:53 PM 37.0 °F 32.4 °F 32.0 °F 82% 29.87 in 10.0 mi SSE 5.8 mph - N/A   Scattered Clouds
9:53 PM 37.0 °F 31.6 °F 32.0 °F 82% 29.88 in 10.0 mi South 6.9 mph - N/A   Scattered Clouds
10:53 PM 36.0 °F 29.6 °F 32.0 °F 86% 29.88 in 10.0 mi SSE 8.1 mph - N/A   Mostly Cloudy
11:53 PM 36.0 °F 29.6 °F 32.0 °F 86% 29.90 in 10.0 mi SSE 8.1 mph - N/A   Mostly Cloudy